Location: Unspecified
(50.7693°N, 0.0000°E)
Time: 21:40:21
(UTC+00:00)

SR - Pass Details

Date: 30 June 2019
Orbit: 580 x 876 km, 66.7° (Epoch: 19 July)

Event Time Altitude Azimuth Distance (km) Brightness Sun altitude
Rises 08:30:34 0° 324° (NW) 2,966 ? 40.7°
Reaches altitude 10° 08:33:04 10° 336° (NNW) 2,098 ? 41.1°
Maximum altitude 08:37:13 29° 37° (NE) 1,293 ? 41.8°
Drops below altitude 10° 08:41:38 10° 97° (E) 2,257 ? 42.4°
Sets 08:44:25 0° 108° (ESE) 3,234 ? 42.9°
